Flag for Germany Weather past 2 weeks in Kaiserslautern, Rhineland-Palatinate, Germany

Now
64 °F

Partly sunny.


Feels Like: 64 °F
Forecast: 48 / 65 °F
Wind: 6 mph from Northwest

Location: Ramstein

Current Time: Sep 1, 2015 at 6:38:32 PM

Latest Report: Sep 1, 2015 at 5:58 PM


Visibility: N/A

Pressure: 29.96 "Hg

Humidity: 75%

Dew point: 56 °F

Location of KaiserslauternLocation

Historic Weather in Kaiserslautern — Graph

°F

Kaiserslautern temperature yesterday

Maximum temperature yesterday: 91 °F (at 4:58 PM)
Minimum temperature yesterday: 59 °F (at 6:58 AM)
Average temperature yesterday: 76 °F

Past Weeks' High & Low Weather Summary

 TemperatureHumidityPressure
High92 °F (Aug 30, 4:58 PM)100% (Aug 19, 3:02 AM)30.27 "Hg (Aug 19, 3:02 AM)
Low43 °F (Aug 19, 6:58 AM)21% (Aug 31, 2:58 PM)29.66 "Hg (Aug 24, 12:58 PM)
Average66 °F69%30.00 "Hg
* Reported Aug 17 5:01 PM — Sep 1 5:02 PM, Kaiserslautern, Weather by CustomWeather, © 2015

Note: Actual official high and low records may vary slightly from our data, if they occured in-between our weather recording intervals... More about our weather records

Advertising

Kaiserslautern weather history for previous 24 hours

 ConditionsComfort  
Time TempWeatherWind HumidityBarometerVisibility
5:02 PM
Tue, Sep 1
63 °FBroken clouds.7 mph83%29.95 "HgN/A
3:58 PM64 °FLight rain. Partly sunny.8 mph88%29.92 "HgN/A
2:58 PM64 °FLight rain. Partly sunny.No wind83%29.90 "HgN/A
1:58 PM63 °FDrizzle. Overcast.8 mph88%29.87 "HgN/A
12:58 PM64 °FLight rain. Partly sunny.10 mph88%29.85 "HgN/A
12:04 PM73 °FMostly cloudy.21 mph65%29.77 "HgN/A
10:58 AM73 °FPassing clouds.7 mph60%29.76 "HgN/A
10:04 AM70 °FLight rain. Passing clouds.No wind83%29.79 "HgN/A
8:58 AM68 °FScattered clouds.2 mph88%29.76 "HgN/A
7:58 AM65 °FScattered clouds.No wind100%29.76 "HgN/A
6:58 AM63 °FPassing clouds.2 mph99%29.78 "HgN/A
5:00 AM66 °FPassing clouds.No wind88%29.83 "HgN/A
4:58 AM65 °FLight rain. Passing clouds.No wind92%29.80 "HgN/A
3:58 AM66 °FPassing clouds.No wind80%29.81 "HgN/A
2:58 AM68 °FPassing clouds.No wind75%29.82 "HgN/A
1:58 AM70 °FPassing clouds.No wind68%29.82 "HgN/A
12:58 AM68 °FPassing clouds.No wind73%29.82 "HgN/A
10:58 PM
Mon, Aug 31
75 °FPassing clouds.No wind53%29.83 "HgN/A
9:58 PM80 °FPassing clouds.5 mph43%29.83 "HgN/A
8:58 PM80 °FSunny.5 mph42%29.83 "HgN/A
7:58 PM84 °FSunny.6 mph35%29.81 "HgN/A
6:58 PM88 °FSunny.9 mph30%29.82 "HgN/A
Weather by CustomWeather, © 2015

See weather overviewHow to use our weather pages